TimeCDT,TemperatureF,Dew PointF,Humidity,Sea Level PressureIn,VisibilityMPH,Wind Direction,Wind SpeedMPH,Gust SpeedMPH,PrecipitationIn,Events,Conditions,WindDirDegrees,DateUTC
1:43 AM,60.8,51.8,72,30.21,8.0,North,4.6,-,N/A,,Mostly Cloudy,360,2013-10-16 06:43:00
2:44 AM,57.2,48.2,72,30.21,8.0,ESE,3.5,-,N/A,,Mostly Cloudy,120,2013-10-16 07:44:00
3:46 AM,57.2,46.4,67,29.79,8.0,East,3.5,-,N/A,,Mostly Cloudy,90,2013-10-16 08:46:00
4:43 AM,55.4,48.2,77,30.21,8.0,NE,5.8,-,N/A,,Scattered Clouds,40,2013-10-16 09:43:00
5:43 AM,55.4,48.2,77,30.21,8.0,NNE,3.5,-,N/A,,Scattered Clouds,30,2013-10-16 10:43:00
6:43 AM,53.6,48.2,82,29.84,8.0,NE,4.6,-,N/A,,Scattered Clouds,40,2013-10-16 11:43:00
7:43 AM,53.6,48.2,82,30.24,9.0,Calm,Calm,-,N/A,,Scattered Clouds,0,2013-10-16 12:43:00
8:46 AM,59.0,50.0,72,30.24,10.0,Calm,Calm,-,N/A,,Mostly Cloudy,0,2013-10-16 13:46:00
9:49 AM,69.8,51.8,53,29.90,10.0,Calm,Calm,-,N/A,,Mostly Cloudy,0,2013-10-16 14:49:00
11:42 AM,77.0,57.2,50,30.27,10.0,WSW,4.6,-,N/A,,Mostly Cloudy,240,2013-10-16 16:42:00
12:40 PM,78.8,57.2,47,29.86,8.0,SW,5.8,-,N/A,,Mostly Cloudy,230,2013-10-16 17:40:00
1:47 PM,82.4,57.2,42,30.21,8.0,WNW,6.9,-,N/A,,Mostly Cloudy,290,2013-10-16 18:47:00
2:41 PM,84.2,55.4,37,30.18,9.0,West,5.8,-,N/A,,Mostly Cloudy,280,2013-10-16 19:41:00
3:49 PM,84.2,53.6,35,29.71,9.0,SW,5.8,-,N/A,,Mostly Cloudy,220,2013-10-16 20:49:00
4:48 PM,84.2,51.8,33,30.12,9.0,Calm,Calm,-,N/A,,Mostly Cloudy,0,2013-10-16 21:48:00
6:46 PM,77.0,53.6,44,29.75,10.0,Calm,Calm,-,N/A,,Mostly Cloudy,0,2013-10-16 23:46:00
7:45 PM,71.6,51.8,50,30.12,8.0,Calm,Calm,-,N/A,,Mostly Cloudy,0,2013-10-17 00:45:00
8:46 PM,68.0,57.2,68,30.18,8.0,NE,5.8,-,N/A,,Mostly Cloudy,40,2013-10-17 01:46:00
9:49 PM,66.2,55.4,68,29.79,8.0,NE,8.1,-,N/A,,Mostly Cloudy,40,2013-10-17 02:49:00
10:47 PM,66.2,55.4,68,30.24,8.0,Calm,Calm,-,N/A,,Mostly Cloudy,0,2013-10-17 03:47:00
11:43 PM,66.2,55.4,68,30.24,8.0,Calm,Calm,-,N/A,,Mostly Cloudy,0,2013-10-17 04:43:00